Time,TemperatureF,DewpointF,PressureIn,WindDirection,WindDirectionDegrees,WindSpeedMPH,WindSpeedGustMPH,Humidity,HourlyPrecipIn,Conditions,Clouds,dailyrainin,SoftwareType,DateUTC
2013-04-24 00:02:00,69.0,66.0,30.11,NE,47,1.0,-999.0,91,-99.99,,,-99.99,,2013-04-24 10:02:00,
2013-04-24 00:12:00,69.0,66.0,30.11,NE,47,1.0,-999.0,91,-99.99,,,-99.99,,2013-04-24 10:12:00,
2013-04-24 00:22:00,69.0,66.0,30.10,NE,52,2.0,-999.0,90,-99.99,,,-99.99,,2013-04-24 10:22:00,
2013-04-24 00:32:00,69.0,66.0,30.10,NE,47,2.0,-999.0,90,-99.99,,,-99.99,,2013-04-24 10:32:00,
2013-04-24 00:42:00,69.0,66.0,30.10,NE,47,2.0,-999.0,90,-99.99,,,-99.99,,2013-04-24 10:42:00,
2013-04-24 00:52:00,69.0,65.0,30.09,NE,51,1.0,-999.0,88,-99.99,,,-99.99,,2013-04-24 10:52:00,
2013-04-24 01:02:00,68.0,64.0,30.09,NE,38,2.0,-999.0,86,-99.99,,,-99.99,,2013-04-24 11:02:00,
2013-04-24 01:11:00,68.0,64.0,30.09,NE,38,2.0,-999.0,86,-99.99,,,-99.99,,2013-04-24 11:11:00,
2013-04-24 01:21:00,68.0,63.0,30.09,NE,54,3.0,-999.0,85,-99.99,,,-99.99,,2013-04-24 11:21:00,
2013-04-24 01:32:00,67.0,62.0,30.09,ENE,64,2.0,-999.0,83,-99.99,,,-99.99,,2013-04-24 11:32:00,
2013-04-24 01:42:00,67.0,62.0,30.09,ENE,64,2.0,-999.0,83,-99.99,,,-99.99,,2013-04-24 11:42:00,
2013-04-24 01:52:00,67.0,62.0,30.08,NE,56,3.0,-999.0,85,-99.99,,,-99.99,,2013-04-24 11:52:00,
2013-04-24 02:01:00,67.0,63.0,30.07,NE,49,1.0,-999.0,86,-99.99,,,-99.99,,2013-04-24 12:01:00,
2013-04-24 02:11:00,67.0,63.0,30.07,NE,49,1.0,-999.0,86,-99.99,,,-99.99,,2013-04-24 12:11:00,
2013-04-24 02:22:00,66.0,62.0,30.07,NE,51,1.0,-999.0,86,-99.99,,,-99.99,,2013-04-24 12:22:00,
2013-04-24 02:32:00,66.0,63.0,30.06,NNW,336,1.0,-999.0,89,-99.99,,,-99.99,,2013-04-24 12:32:00,
2013-04-24 02:42:00,66.0,63.0,30.06,NNW,336,1.0,-999.0,89,-99.99,,,-99.99,,2013-04-24 12:42:00,
2013-04-24 02:51:00,66.0,62.0,30.06,NE,45,2.0,-999.0,88,-99.99,,,-99.99,,2013-04-24 12:51:00,
2013-04-24 03:01:00,65.0,62.0,30.05,NE,53,3.0,-999.0,89,-99.99,,,-99.99,,2013-04-24 13:01:00,
2013-04-24 03:12:00,65.0,62.0,30.05,NE,53,3.0,-999.0,89,-99.99,,,-99.99,,2013-04-24 13:12:00,
2013-04-24 03:22:00,65.0,62.0,30.05,NE,36,2.0,-999.0,89,-99.99,,,-99.99,,2013-04-24 13:22:00,
2013-04-24 03:31:00,65.0,62.0,30.04,NE,44,1.0,-999.0,89,-99.99,,,-99.99,,2013-04-24 13:31:00,
2013-04-24 03:41:00,65.0,62.0,30.04,NE,44,1.0,-999.0,89,-99.99,,,-99.99,,2013-04-24 13:41:00,
2013-04-24 03:52:00,65.0,61.0,30.03,ENE,59,3.0,-999.0,87,-99.99,,,-99.99,,2013-04-24 13:52:00,
2013-04-24 04:01:00,65.0,61.0,30.03,NE,43,2.0,-999.0,86,-99.99,,,-99.99,,2013-04-24 14:01:00,
2013-04-24 04:11:00,65.0,61.0,30.03,NE,43,2.0,-999.0,86,-99.99,,,-99.99,,2013-04-24 14:11:00,
2013-04-24 04:21:00,65.0,61.0,30.04,NNE,28,1.0,-999.0,87,-99.99,,,-99.99,,2013-04-24 14:21:00,
2013-04-24 04:32:00,65.0,60.0,30.03,NE,49,1.0,-999.0,85,-99.99,,,-99.99,,2013-04-24 14:32:00,
2013-04-24 04:41:00,65.0,60.0,30.03,NE,49,1.0,-999.0,85,-99.99,,,-99.99,,2013-04-24 14:41:00,
2013-04-24 04:51:00,64.0,59.0,30.04,NE,51,1.0,-999.0,85,-99.99,,,-99.99,,2013-04-24 14:51:00,
2013-04-24 05:01:00,64.0,60.0,30.04,NE,42,1.0,-999.0,87,-99.99,,,-99.99,,2013-04-24 15:01:00,
2013-04-24 05:11:00,64.0,60.0,30.04,NE,42,1.0,-999.0,87,-99.99,,,-99.99,,2013-04-24 15:11:00,
2013-04-24 05:21:00,64.0,60.0,30.05,ENE,67,1.0,-999.0,88,-99.99,,,-99.99,,2013-04-24 15:21:00,
2013-04-24 05:33:00,64.0,61.0,30.05,ENE,71,0.0,-999.0,89,-99.99,,,-99.99,,2013-04-24 15:33:00,
2013-04-24 05:42:00,64.0,61.0,30.05,ENE,71,0.0,-999.0,89,-99.99,,,-99.99,,2013-04-24 15:42:00,
2013-04-24 05:52:00,64.0,61.0,30.05,East,86,1.0,-999.0,89,-99.99,,,-99.99,,2013-04-24 15:52:00,
2013-04-24 06:03:00,64.0,61.0,30.06,ENE,58,1.0,-999.0,89,-99.99,,,-99.99,,2013-04-24 16:03:00,
2013-04-24 06:12:00,64.0,61.0,30.06,ENE,58,1.0,-999.0,89,-99.99,,,-99.99,,2013-04-24 16:12:00,
2013-04-24 06:23:00,64.0,60.0,30.06,NE,51,1.0,-999.0,87,-99.99,,,-99.99,,2013-04-24 16:23:00,
2013-04-24 06:32:00,63.0,59.0,30.06,NE,51,1.0,-999.0,87,-99.99,,,-99.99,,2013-04-24 16:32:00,
2013-04-24 06:42:00,63.0,59.0,30.06,NE,51,1.0,-999.0,87,-99.99,,,-99.99,,2013-04-24 16:42:00,
2013-04-24 06:52:00,63.0,59.0,30.07,NE,55,1.0,-999.0,88,-99.99,,,-99.99,,2013-04-24 16:52:00,
2013-04-24 07:02:00,63.0,59.0,30.07,NE,55,1.0,-999.0,88,-99.99,,,-99.99,,2013-04-24 17:02:00,
2013-04-24 07:12:00,63.0,59.0,30.07,NE,55,1.0,-999.0,88,-99.99,,,-99.99,,2013-04-24 17:12:00,
2013-04-24 07:22:00,63.0,59.0,30.08,NE,55,0.0,-999.0,88,-99.99,,,-99.99,,2013-04-24 17:22:00,
2013-04-24 07:32:00,65.0,60.0,30.08,ENE,60,3.0,-999.0,85,-99.99,,,-99.99,,2013-04-24 17:32:00,
2013-04-24 07:42:00,65.0,60.0,30.08,ENE,60,3.0,-999.0,85,-99.99,,,-99.99,,2013-04-24 17:42:00,
2013-04-24 07:51:00,66.0,61.0,30.08,ENE,60,1.0,-999.0,84,-99.99,,,-99.99,,2013-04-24 17:51:00,
2013-04-24 08:02:00,70.0,64.0,30.09,ENE,60,0.0,-999.0,81,-99.99,,,-99.99,,2013-04-24 18:02:00,
2013-04-24 08:12:00,70.0,64.0,30.09,ENE,60,0.0,-999.0,81,-99.99,,,-99.99,,2013-04-24 18:12:00,
2013-04-24 08:21:00,72.0,64.0,30.09,ENE,60,0.0,-999.0,77,-99.99,,,-99.99,,2013-04-24 18:21:00,
2013-04-24 08:32:00,73.0,65.0,30.10,ENE,60,0.0,-999.0,75,-99.99,,,-99.99,,2013-04-24 18:32:00,
2013-04-24 08:42:00,73.0,65.0,30.10,ENE,60,0.0,-999.0,75,-99.99,,,-99.99,,2013-04-24 18:42:00,
2013-04-24 08:52:00,74.0,66.0,30.11,South,189,1.0,-999.0,76,-99.99,,,-99.99,,2013-04-24 18:52:00,
2013-04-24 09:01:00,74.0,66.0,30.11,SW,217,0.0,-999.0,76,-99.99,,,-99.99,,2013-04-24 19:01:00,
2013-04-24 09:11:00,74.0,66.0,30.11,SW,217,0.0,-999.0,76,-99.99,,,-99.99,,2013-04-24 19:11:00,
2013-04-24 09:21:00,75.0,67.0,30.11,South,181,1.0,-999.0,76,-99.99,,,-99.99,,2013-04-24 19:21:00,
2013-04-24 09:31:00,75.0,68.0,30.11,NW,314,4.0,-999.0,79,-99.99,,,-99.99,,2013-04-24 19:31:00,
2013-04-24 09:42:00,75.0,68.0,30.11,NW,314,4.0,-999.0,79,-99.99,,,-99.99,,2013-04-24 19:42:00,
2013-04-24 09:52:00,74.0,68.0,30.12,NNW,334,4.0,-999.0,82,-99.99,,,-99.99,,2013-04-24 19:52:00,
2013-04-24 10:01:00,74.0,69.0,30.12,North,350,3.0,-999.0,84,-99.99,,,-99.99,,2013-04-24 20:01:00,
2013-04-24 10:11:00,74.0,69.0,30.12,North,350,3.0,-999.0,84,-99.99,,,-99.99,,2013-04-24 20:11:00,
2013-04-24 10:21:00,73.0,68.0,30.12,North,11,5.0,-999.0,85,-99.99,,,-99.99,,2013-04-24 20:21:00,
2013-04-24 10:32:00,73.0,68.0,30.12,NNW,340,5.0,-999.0,85,-99.99,,,-99.99,,2013-04-24 20:32:00,
2013-04-24 10:42:00,73.0,68.0,30.12,NNW,340,5.0,-999.0,85,-99.99,,,-99.99,,2013-04-24 20:42:00,
2013-04-24 10:51:00,73.0,69.0,30.12,NW,311,6.0,-999.0,86,-99.99,,,-99.99,,2013-04-24 20:51:00,
2013-04-24 11:02:00,74.0,70.0,30.11,NW,322,4.0,-999.0,86,-99.99,,,-99.99,,2013-04-24 21:02:00,
2013-04-24 11:11:00,74.0,70.0,30.11,NW,322,4.0,-999.0,86,-99.99,,,-99.99,,2013-04-24 21:11:00,
2013-04-24 11:21:00,73.0,69.0,30.11,NNW,344,5.0,-999.0,86,-99.99,,,-99.99,,2013-04-24 21:21:00,
2013-04-24 11:32:00,74.0,69.0,30.11,NNW,348,3.0,-999.0,85,-99.99,,,-99.99,,2013-04-24 21:32:00,
2013-04-24 11:42:00,74.0,69.0,30.11,NNW,348,3.0,-999.0,85,-99.99,,,-99.99,,2013-04-24 21:42:00,
2013-04-24 11:52:00,75.0,69.0,30.10,WNW,294,2.0,-999.0,82,-99.99,,,-99.99,,2013-04-24 21:52:00,
2013-04-24 12:03:00,76.0,69.0,30.09,NNW,331,1.0,-999.0,80,-99.99,,,-99.99,,2013-04-24 22:03:00,
2013-04-24 12:12:00,76.0,69.0,30.09,NNW,331,1.0,-999.0,80,-99.99,,,-99.99,,2013-04-24 22:12:00,
2013-04-24 12:22:00,76.0,68.0,30.09,NW,323,3.0,-999.0,77,-99.99,,,-99.99,,2013-04-24 22:22:00,
2013-04-24 12:32:00,77.0,70.0,30.09,West,273,3.0,-999.0,78,-99.99,,,-99.99,,2013-04-24 22:32:00,
2013-04-24 12:42:00,77.0,70.0,30.09,West,273,3.0,-999.0,78,-99.99,,,-99.99,,2013-04-24 22:42:00,
2013-04-24 12:52:00,75.0,69.0,30.08,SW,227,4.0,-999.0,81,-99.99,,,-99.99,,2013-04-24 22:52:00,
2013-04-24 13:02:00,74.0,68.0,30.07,SW,226,3.0,-999.0,82,-99.99,,,-99.99,,2013-04-24 23:02:00,
2013-04-24 13:12:00,74.0,68.0,30.07,SW,226,3.0,-999.0,82,-99.99,,,-99.99,,2013-04-24 23:12:00,
2013-04-24 13:21:00,75.0,69.0,30.07,West,280,3.0,-999.0,81,-99.99,,,-99.99,,2013-04-24 23:21:00,
2013-04-24 13:32:00,75.0,69.0,30.06,SW,222,2.0,-999.0,81,-99.99,,,-99.99,,2013-04-24 23:32:00,
2013-04-24 13:42:00,75.0,69.0,30.06,SW,222,2.0,-999.0,81,-99.99,,,-99.99,,2013-04-24 23:42:00,
2013-04-24 13:51:00,74.0,68.0,30.06,West,269,2.0,-999.0,82,-99.99,,,-99.99,,2013-04-24 23:51:00,
2013-04-24 14:01:00,75.0,69.0,30.05,SW,218,2.0,-999.0,81,-99.99,,,-99.99,,2013-04-25 00:01:00,
2013-04-24 14:12:00,75.0,69.0,30.05,SW,218,2.0,-999.0,81,-99.99,,,-99.99,,2013-04-25 00:12:00,
2013-04-24 14:22:00,74.0,68.0,30.05,SSW,204,4.0,-999.0,82,-99.99,,,-99.99,,2013-04-25 00:22:00,
2013-04-24 14:32:00,74.0,68.0,30.05,SW,232,2.0,-999.0,83,-99.99,,,-99.99,,2013-04-25 00:32:00,
2013-04-24 14:41:00,74.0,68.0,30.05,SW,232,2.0,-999.0,83,-99.99,,,-99.99,,2013-04-25 00:41:00,
2013-04-24 14:51:00,74.0,68.0,30.04,WSW,257,2.0,-999.0,83,-99.99,,,-99.99,,2013-04-25 00:51:00,
2013-04-24 15:01:00,74.0,68.0,30.04,WNW,284,2.0,-999.0,83,-99.99,,,-99.99,,2013-04-25 01:01:00,
2013-04-24 15:11:00,74.0,68.0,30.04,WNW,284,2.0,-999.0,83,-99.99,,,-99.99,,2013-04-25 01:11:00,
2013-04-24 15:22:00,74.0,69.0,30.04,SW,215,3.0,-999.0,84,-99.99,,,-99.99,,2013-04-25 01:22:00,
2013-04-24 15:32:00,74.0,68.0,30.04,SW,223,2.0,-999.0,83,-99.99,,,-99.99,,2013-04-25 01:32:00,
2013-04-24 15:42:00,74.0,68.0,30.04,SW,223,2.0,-999.0,83,-99.99,,,-99.99,,2013-04-25 01:42:00,
2013-04-24 15:52:00,74.0,68.0,30.03,South,188,3.0,-999.0,83,-99.99,,,-99.99,,2013-04-25 01:52:00,
2013-04-24 16:01:00,74.0,68.0,30.03,South,181,3.0,-999.0,81,-99.99,,,-99.99,,2013-04-25 02:01:00,
2013-04-24 16:11:00,74.0,68.0,30.03,South,181,3.0,-999.0,81,-99.99,,,-99.99,,2013-04-25 02:11:00,
2013-04-24 16:22:00,74.0,67.0,30.03,SSW,198,2.0,-999.0,80,-99.99,,,-99.99,,2013-04-25 02:22:00,
2013-04-24 16:32:00,73.0,68.0,30.03,SSW,202,2.0,-999.0,84,-99.99,,,-99.99,,2013-04-25 02:32:00,
2013-04-24 16:42:00,73.0,68.0,30.03,SSW,202,2.0,-999.0,84,-99.99,,,-99.99,,2013-04-25 02:42:00,
2013-04-24 16:51:00,73.0,68.0,30.03,SSW,202,2.0,-999.0,84,-99.99,,,-99.99,,2013-04-25 02:51:00,
2013-04-24 17:02:00,73.0,69.0,30.03,SSW,206,2.0,-999.0,86,-99.99,,,-99.99,,2013-04-25 03:02:00,
2013-04-24 17:11:00,73.0,69.0,30.03,SSW,206,2.0,-999.0,86,-99.99,,,-99.99,,2013-04-25 03:11:00,
2013-04-24 17:21:00,73.0,69.0,30.03,SSW,203,2.0,-999.0,87,-99.99,,,-99.99,,2013-04-25 03:21:00,
2013-04-24 17:32:00,72.0,68.0,30.04,South,175,1.0,-999.0,87,-99.99,,,-99.99,,2013-04-25 03:32:00,
2013-04-24 17:42:00,72.0,68.0,30.04,South,175,1.0,-999.0,87,-99.99,,,-99.99,,2013-04-25 03:42:00,
2013-04-24 17:52:00,72.0,68.0,30.03,South,173,0.0,-999.0,87,-99.99,,,-99.99,,2013-04-25 03:52:00,
2013-04-24 18:03:00,72.0,68.0,30.03,South,186,1.0,-999.0,88,-99.99,,,-99.99,,2013-04-25 04:03:00,
2013-04-24 18:12:00,72.0,68.0,30.03,South,186,1.0,-999.0,88,-99.99,,,-99.99,,2013-04-25 04:12:00,
2013-04-24 18:22:00,72.0,68.0,30.04,South,184,1.0,-999.0,88,-99.99,,,-99.99,,2013-04-25 04:22:00,
2013-04-24 18:32:00,72.0,69.0,30.05,SSW,204,2.0,-999.0,89,-99.99,,,-99.99,,2013-04-25 04:32:00,
2013-04-24 18:43:00,72.0,69.0,30.05,SSW,204,2.0,-999.0,89,-99.99,,,-99.99,,2013-04-25 04:43:00,
2013-04-24 18:52:00,72.0,69.0,30.05,SSW,198,1.0,-999.0,89,-99.99,,,-99.99,,2013-04-25 04:52:00,
2013-04-24 19:02:00,72.0,69.0,30.06,SW,224,1.0,-999.0,90,-99.99,,,-99.99,,2013-04-25 05:02:00,
2013-04-24 19:12:00,72.0,69.0,30.06,SW,224,1.0,-999.0,90,-99.99,,,-99.99,,2013-04-25 05:12:00,
2013-04-24 19:21:00,71.0,68.0,30.06,South,184,2.0,-999.0,90,-99.99,,,-99.99,,2013-04-25 05:21:00,
2013-04-24 19:31:00,71.0,68.0,30.07,South,182,0.0,-999.0,91,-99.99,,,-99.99,,2013-04-25 05:31:00,
2013-04-24 19:42:00,71.0,68.0,30.07,South,182,0.0,-999.0,91,-99.99,,,-99.99,,2013-04-25 05:42:00,
2013-04-24 19:51:00,71.0,68.0,30.07,SW,215,1.0,-999.0,91,-99.99,,,-99.99,,2013-04-25 05:51:00,
2013-04-24 20:01:00,71.0,68.0,30.07,South,184,1.0,-999.0,91,-99.99,,,-99.99,,2013-04-25 06:01:00,
2013-04-24 20:11:00,71.0,68.0,30.07,South,184,1.0,-999.0,91,-99.99,,,-99.99,,2013-04-25 06:11:00,
2013-04-24 20:22:00,71.0,69.0,30.08,South,182,0.0,-999.0,92,-99.99,,,-99.99,,2013-04-25 06:22:00,
2013-04-24 20:31:00,70.0,68.0,30.08,South,182,0.0,-999.0,92,-99.99,,,-99.99,,2013-04-25 06:31:00,
2013-04-24 20:41:00,70.0,68.0,30.08,South,182,0.0,-999.0,92,-99.99,,,-99.99,,2013-04-25 06:41:00,
2013-04-24 20:52:00,70.0,68.0,30.09,South,182,0.0,-999.0,92,-99.99,,,-99.99,,2013-04-25 06:52:00,
2013-04-24 21:01:00,70.0,68.0,30.09,SSE,157,0.0,-999.0,92,-99.99,,,-99.99,,2013-04-25 07:01:00,
2013-04-24 21:11:00,70.0,68.0,30.09,SSE,157,0.0,-999.0,92,-99.99,,,-99.99,,2013-04-25 07:11:00,
2013-04-24 21:21:00,70.0,67.0,30.09,SSE,156,0.0,-999.0,91,-99.99,,,-99.99,,2013-04-25 07:21:00,
2013-04-24 21:31:00,69.0,66.0,30.10,SE,146,0.0,-999.0,91,-99.99,,,-99.99,,2013-04-25 07:31:00,
2013-04-24 21:42:00,69.0,66.0,30.10,SE,146,0.0,-999.0,91,-99.99,,,-99.99,,2013-04-25 07:42:00,
2013-04-24 21:52:00,70.0,67.0,30.11,SE,146,0.0,-999.0,91,-99.99,,,-99.99,,2013-04-25 07:52:00,
2013-04-24 22:01:00,69.0,66.0,30.11,South,191,0.0,-999.0,90,-99.99,,,-99.99,,2013-04-25 08:01:00,
2013-04-24 22:11:00,69.0,66.0,30.11,South,191,0.0,-999.0,90,-99.99,,,-99.99,,2013-04-25 08:11:00,
2013-04-24 22:21:00,69.0,66.0,30.11,South,191,0.0,-999.0,91,-99.99,,,-99.99,,2013-04-25 08:21:00,
2013-04-24 22:31:00,68.0,66.0,30.11,South,191,0.0,-999.0,92,-99.99,,,-99.99,,2013-04-25 08:31:00,
2013-04-24 22:41:00,68.0,66.0,30.11,South,191,0.0,-999.0,92,-99.99,,,-99.99,,2013-04-25 08:41:00,
2013-04-24 22:51:00,68.0,66.0,30.11,ESE,107,1.0,-999.0,92,-99.99,,,-99.99,,2013-04-25 08:51:00,
2013-04-24 23:01:00,69.0,67.0,30.12,ESE,107,0.0,-999.0,92,-99.99,,,-99.99,,2013-04-25 09:01:00,
2013-04-24 23:11:00,69.0,67.0,30.12,ESE,107,0.0,-999.0,92,-99.99,,,-99.99,,2013-04-25 09:11:00,
2013-04-24 23:21:00,69.0,66.0,30.11,ESE,107,0.0,-999.0,91,-99.99,,,-99.99,,2013-04-25 09:21:00,
2013-04-24 23:32:00,68.0,66.0,30.11,ESE,107,0.0,-999.0,92,-99.99,,,-99.99,,2013-04-25 09:32:00,
2013-04-24 23:42:00,68.0,66.0,30.11,ESE,107,0.0,-999.0,92,-99.99,,,-99.99,,2013-04-25 09:42:00,
2013-04-24 23:52:00,68.0,66.0,30.11,ESE,107,0.0,-999.0,93,-99.99,,,-99.99,,2013-04-25 09:52:00,